Orbital Elements at Epoch 2459000.5 (2020-May-31.0) TDB
Reference: JPL 25 (heliocentric ecliptic J2000)
Element | Value | Uncertainty (1-sigma) | Units |
e | .2959722340403699 | 3.2959e-08 | |
a | 2.716582205460664 | 9.5988e-09 | au |
q | 1.912549301156156 | 9.0786e-08 | au |
i | 10.36227779704083 | 3.6249e-06 | deg |
node | 121.5156839049662 | 2.2412e-05 | deg |
peri | 250.7946863246016 | 2.3417e-05 | deg |
M | 108.8109602848654 | 7.4237e-06 | deg |
tp | 2458506.186073065237 (2019-Jan-22.68607307) | 3.2436e-05 | TDB |
period | 1635.432802271355 4.48 | 8.668e-06 2.373e-08 | d yr |
n | .2201252167010577 | 1.1667e-09 | deg/d |
Q | 3.520615109765172 | 1.244e-08 | au |
|
| | Orbit Determination Parameters
Additional Information
|